[[{"header":{"parameterUnit":"m.s-1","parameterCategory":1,"la1":30.2991,"la2":30.254,"lo1":-89.0895,"lo2":-89.0444,"dy":0.0017,"dx":0.0017,"nx":28,"ny":28,"refTime":"2024-09-28T21:00:00:Z","depth":0,"parameterNumber":2,"parameterNumberName":"U-component_of_WINDS"},"data":[0,0,0,0,0,0,0,0,0,0,0,0,0,0,0,0,0,0,0,0,0,0,0,0,0,0,0,0,0,0,0,0,0,0,0,0,0,0,0,0,0,0,0,0,0,0,0,0,0,0,0,0,0,0,0,0,0,0,2.6912,2.6913,0,2.7042,2.7044,2.7045,2.7016,2.7014,2.7011,2.7009,2.7146,2.7152,2.7158,0,0,0,0,0,0,0,0,0,0,0,0,0,2.664,2.6646,2.6912,2.6913,2.6915,2.7042,2.7044,2.7046,2.7016,2.7013,2.701,2.7008,2.7144,2.7151,2.7158,0,0,0,0,0,0,0,0,0,0,0,0,0,2.6763,2.6647,2.6911,2.6916,2.6917,2.7042,2.7044,2.7046,2.7017,2.7013,2.701,2.7006,2.7142,2.715,2.7159,2.7289,0,0,2.7187,2.719,0,0,0,0,0,0,0,0,2.6757,2.6773,2.6913,2.6916,2.6918,2.7009,2.6998,2.7128,2.7018,2.6979,2.7009,2.7004,2.7104,2.7115,2.7148,2.7295,2.7301,2.7187,2.7193,2.7197,2.7199,0,0,0,0,0,0,0,2.6748,2.6768,2.6963,2.6915,2.6918,2.6912,2.6925,2.7023,2.7061,2.6982,2.6981,2.6996,2.7104,2.714,2.7151,2.7303,2.7187,2.7195,2.7201,2.7204,2.7563,2.7567,0,0,0,0,0,0,2.6737,2.6761,2.6959,2.6967,2.6826,2.692,2.6935,2.6984,2.706,2.7068,2.6999,2.6994,2.7126,2.7141,2.7156,2.7313,2.7196,2.7205,2.721,2.7559,2.7564,2.7568,0,0,0,0,0,0,2.6731,2.6755,2.6954,2.6864,2.6888,2.6929,2.6983,2.6988,2.7023,2.7072,2.7079,2.7028,2.7124,2.7143,2.7256,2.7317,2.7209,2.7217,2.7554,2.756,2.7566,2.7627,0,0,0,0,0,0,2.6724,2.6753,2.6802,2.6865,2.6893,2.7051,2.6987,2.6993,2.7039,2.7033,2.7102,2.7109,2.7122,2.7242,2.7265,2.7327,2.7224,2.7548,2.7557,2.7564,2.762,2.7634,2.7647,0,0,0,0,0,2.6714,2.6815,2.6805,2.6829,2.6955,2.7054,2.7071,2.7083,2.7044,2.7094,2.7125,2.7107,2.7307,2.7254,2.7279,2.7345,2.7545,2.7554,2.7563,2.7613,2.7632,2.7647,0,0,0,0,0,0,2.6759,2.6823,2.6813,2.6936,2.699,2.7049,2.7112,2.7102,2.7168,2.7161,2.7174,2.719,2.7304,2.7336,2.7277,2.7475,2.742,2.7435,2.745,2.7467,2.7481,2.7471,2.7231,0,0,0,0,0,2.6783,2.6858,2.691,2.7014,2.7041,2.7072,2.7116,2.712,2.7177,2.72,2.724,2.7296,2.7372,2.7421,2.7493,2.7624,2.7639,2.7682,2.7696,2.7707,2.7719,2.7791,2.7811,2.7599,2.7599,2.7599,0,0,2.6835,2.6879,2.6925,2.7024,2.7066,2.7144,2.7092,2.7176,2.7234,2.7213,2.7321,2.7353,2.7417,2.7539,2.7594,2.7569,2.7781,2.7719,2.7727,2.7734,2.7803,2.7823,2.7841,2.7605,2.7604,2.7603,0,0,2.6967,2.7008,2.7099,2.7142,2.7206,2.7226,2.7248,2.7309,2.7328,2.7437,2.7423,2.7493,2.7622,2.7668,2.7709,2.7859,2.7846,2.7882,2.7955,2.8025,2.8041,2.8056,2.811,2.8129,2.7895,2.7895,2.7895,0,2.7023,2.7138,2.7147,2.7233,2.7277,2.7261,2.7354,2.7396,2.7481,2.7512,2.7482,2.7644,2.7686,2.7819,2.7855,2.7888,2.7915,2.7875,2.8038,2.8053,2.8067,2.8119,2.8139,2.7899,2.7899,2.7898,2.7898,0,2.7204,2.7284,2.735,2.7431,2.7483,2.7572,2.7596,2.7647,2.7647,2.7671,2.7782,2.7832,2.7914,2.7945,2.7947,2.8079,2.8061,2.8034,2.798,2.8091,2.814,2.816,2.7905,2.7903,2.7902,2.7901,0,0,2.7369,2.7453,2.7478,2.7514,2.7583,2.7646,2.7735,2.7814,2.7858,2.7917,2.7992,2.8102,2.8078,2.8124,2.813,2.8192,2.8308,2.8157,2.8159,2.8184,2.8457,2.8477,2.85,2.8299,2.8303,2.8306,2.8452,0,2.7508,2.7663,2.7674,2.7814,2.7888,2.7874,2.7951,2.8003,2.8027,2.8095,2.8122,2.82,2.8161,2.8189,2.8249,2.8281,2.8363,2.8271,2.837,2.8374,2.8355,2.8525,2.8547,2.8682,2.8471,2.8474,2.8477,0,2.7691,2.7755,2.7902,2.796,2.7992,2.8061,2.8135,2.8199,2.8258,2.8271,2.8322,2.832,2.8412,2.8354,2.8482,2.8419,2.846,2.8482,2.8488,2.8498,2.8432,2.8541,2.8726,2.8746,2.8507,2.8504,2.8502,0,2.7798,2.792,2.8024,2.8055,2.8126,2.8175,2.8207,2.8262,2.8309,2.8373,2.8404,2.8479,2.852,2.8579,2.8597,2.8553,2.8725,2.8668,2.874,2.8739,2.8777,2.8774,2.8971,2.8803,2.8802,2.8802,2.8802,0,2.7952,2.8043,2.8072,2.8136,2.8238,2.825,2.8351,2.838,2.8429,2.8499,2.8491,2.8558,2.8578,2.8648,2.8664,2.8768,2.8786,2.8801,2.8804,2.8802,2.88,2.8829,2.8821,2.8807,2.8806,2.8805,2.8804,0,2.8089,2.8112,2.8224,2.8281,2.8298,2.8371,2.842,2.8483,2.8505,2.8594,2.8616,2.8652,2.8735,2.8759,2.8859,2.8869,2.8991,2.8985,2.8971,2.8971,2.9041,2.9035,2.9265,2.9296,2.9106,2.9108,2.911,0,2.8186,2.8255,2.832,2.8366,2.8399,2.8474,2.8521,2.8536,2.8585,2.8657,2.8711,2.8792,2.8857,2.899,2.9026,2.9103,2.9099,2.9175,2.9111,2.9106,2.9101,2.9097,2.9104,2.9187,2.9189,2.919,2.9192,0,2.8357,2.8365,2.8432,2.8505,2.8561,2.8619,2.8674,2.8713,2.8735,2.8792,2.8875,2.8926,2.9027,2.9108,2.9185,2.922,2.9211,2.9211,2.9232,2.9231,2.922,2.9227,2.9004,2.9206,2.9205,2.9204,2.9203,2.9202,2.8477,2.8538,2.8593,2.8669,2.8712,2.8764,2.8825,2.8855,2.8924,2.9006,2.9011,2.9102,2.9159,2.9261,2.93,2.9372,2.935,2.938,2.9388,2.9395,2.9401,2.9208,2.9386,2.9386,2.9385,2.9385,2.9385,0,2.8648,2.8682,2.8752,2.8829,2.8889,2.8873,2.8934,2.8985,2.9065,2.9118,2.9182,2.9278,2.9357,2.9399,2.9477,2.9527,2.9525,2.9547,2.9544,2.9552,2.9416,2.939,2.9548,2.9548,2.9548,2.9548,2.9547,2.9547,2.8744,2.8846,2.886,2.8984,2.9018,2.9106,2.9142,2.919,2.9233,2.934,2.9404,2.943,2.948,2.9562,2.9633,2.9644,2.9673,2.9698,2.9707,2.9578,2.9562,2.9546,2.9522,2.9705,2.9705,2.9837,2.9838,2.9839]},{"header":{"parameterUnit":"m.s-1","parameterCategory":1,"la1":30.2991,"la2":30.254,"lo1":-89.0895,"lo2":-89.0444,"dy":0.0017,"dx":0.0017,"nx":28,"ny":28,"refTime":"2024-09-28T21:00:00:Z","depth":0,"parameterNumber":3,"parameterNumberName":"V-component_of_WINDS"},"data":[0,0,0,0,0,0,0,0,0,0,0,0,0,0,0,0,0,0,0,0,0,0,0,0,0,0,0,0,0,0,0,0,0,0,0,0,0,0,0,0,0,0,0,0,0,0,0,0,0,0,0,0,0,0,0,0,0,0,0.0751,0.0752,0,0.0802,0.0803,0.0803,0.079,0.0789,0.0788,0.0787,0.0844,0.0847,0.0849,0,0,0,0,0,0,0,0,0,0,0,0,0,0.0647,0.0649,0.0751,0.0752,0.0752,0.0802,0.0803,0.0803,0.079,0.0789,0.0788,0.0787,0.0843,0.0846,0.0849,0,0,0,0,0,0,0,0,0,0,0,0,0,0.0695,0.0649,0.0751,0.0752,0.0752,0.0802,0.0803,0.0804,0.0791,0.0789,0.0787,0.0786,0.0842,0.0846,0.085,0.0903,0,0,0.0861,0.0863,0,0,0,0,0,0,0,0,0.0692,0.0698,0.0751,0.0752,0.0752,0.0788,0.0787,0.0837,0.0791,0.0776,0.0787,0.0785,0.0827,0.0832,0.0845,0.0906,0.0908,0.0861,0.0864,0.0865,0.0866,0,0,0,0,0,0,0,0.0689,0.0696,0.0771,0.0752,0.0753,0.0751,0.0756,0.0796,0.081,0.0777,0.0776,0.0782,0.0827,0.0841,0.0846,0.0909,0.0861,0.0865,0.0867,0.0868,0.1019,0.102,0,0,0,0,0,0,0.0684,0.0693,0.077,0.0773,0.0717,0.0754,0.076,0.0778,0.0809,0.0812,0.0784,0.0782,0.0836,0.0842,0.0848,0.0915,0.0865,0.0869,0.0871,0.1017,0.1019,0.1021,0,0,0,0,0,0,0.0682,0.0691,0.0768,0.0733,0.0743,0.0757,0.0778,0.078,0.0794,0.0814,0.0817,0.0795,0.0835,0.0843,0.089,0.0916,0.087,0.0874,0.1015,0.1018,0.102,0.1047,0,0,0,0,0,0,0.0679,0.069,0.071,0.0733,0.0744,0.0807,0.078,0.0782,0.08,0.0798,0.0826,0.0829,0.0834,0.0884,0.0893,0.0921,0.0877,0.1013,0.1016,0.1019,0.1044,0.105,0.1056,0,0,0,0,0,0.0675,0.0716,0.0711,0.072,0.0769,0.0808,0.0815,0.0819,0.0802,0.0823,0.0836,0.0828,0.0911,0.0889,0.0899,0.0928,0.1011,0.1015,0.1019,0.1041,0.1049,0.1056,0,0,0,0,0,0,0.0696,0.0719,0.0713,0.0763,0.0783,0.0806,0.0832,0.0827,0.0854,0.0851,0.0856,0.0863,0.0911,0.0924,0.0899,0.0983,0.0959,0.0965,0.0973,0.098,0.0986,0.0983,0.088,0,0,0,0,0,0.0706,0.0735,0.0754,0.0796,0.0806,0.0817,0.0835,0.0836,0.0858,0.0868,0.0884,0.0907,0.0939,0.096,0.099,0.1045,0.1052,0.107,0.1076,0.1081,0.1087,0.1119,0.1128,0.1034,0.1034,0.1034,0,0,0.0728,0.0744,0.0762,0.08,0.0816,0.0848,0.0825,0.0859,0.0883,0.0873,0.0919,0.0931,0.0958,0.101,0.1033,0.1022,0.1114,0.1086,0.1089,0.1093,0.1124,0.1133,0.1141,0.1037,0.1036,0.1036,0,0,0.0784,0.0798,0.0835,0.0852,0.0876,0.0883,0.0892,0.0916,0.0923,0.0968,0.0962,0.0992,0.1045,0.1065,0.1082,0.1146,0.1141,0.1156,0.1188,0.1219,0.1226,0.1233,0.1258,0.1267,0.1161,0.1161,0.1161,0,0.0809,0.0854,0.0855,0.089,0.0908,0.0899,0.0938,0.0954,0.0988,0.1001,0.0988,0.1056,0.1073,0.113,0.1146,0.1159,0.1171,0.1154,0.1225,0.1232,0.1238,0.1262,0.1271,0.1163,0.1163,0.1163,0.1163,0,0.0884,0.0916,0.0943,0.0975,0.0996,0.1032,0.1041,0.1062,0.1061,0.107,0.1117,0.1137,0.1172,0.1185,0.1185,0.1243,0.1235,0.1223,0.12,0.1249,0.1271,0.128,0.1166,0.1165,0.1164,0.1164,0,0,0.0957,0.0988,0.0998,0.1013,0.1039,0.1065,0.1102,0.1134,0.1153,0.1177,0.121,0.1255,0.1244,0.1264,0.1266,0.1293,0.1345,0.1278,0.1279,0.1292,0.1413,0.1423,0.1434,0.1341,0.1342,0.1344,0.1411,0,0.1017,0.108,0.1082,0.1141,0.1172,0.1163,0.1196,0.1217,0.1226,0.1255,0.1266,0.1299,0.1281,0.1293,0.1319,0.1333,0.137,0.1328,0.1374,0.1375,0.137,0.1445,0.1456,0.1519,0.142,0.1421,0.1422,0,0.1095,0.1121,0.1182,0.1205,0.1218,0.1247,0.1278,0.1305,0.1329,0.1334,0.1355,0.1354,0.1394,0.1367,0.1424,0.1395,0.1414,0.1424,0.1426,0.1433,0.1403,0.1456,0.1538,0.1549,0.1436,0.1435,0.1434,0,0.1145,0.1194,0.1237,0.125,0.1277,0.1298,0.1311,0.1333,0.1353,0.138,0.1394,0.1425,0.1444,0.1469,0.1477,0.1456,0.1534,0.1508,0.1541,0.1541,0.156,0.1559,0.1649,0.1568,0.1568,0.1568,0.1567,0,0.1213,0.1252,0.126,0.1287,0.1331,0.1333,0.1377,0.1388,0.1408,0.1439,0.1433,0.1463,0.147,0.1501,0.1507,0.1554,0.1562,0.1569,0.1571,0.1571,0.1571,0.1585,0.1582,0.157,0.157,0.1569,0.1569,0,0.1276,0.1283,0.1331,0.1352,0.1359,0.139,0.141,0.1437,0.1445,0.1484,0.1493,0.1507,0.1544,0.1553,0.1597,0.1601,0.1658,0.1654,0.1649,0.165,0.1684,0.1682,0.1789,0.1804,0.1711,0.1711,0.1712,0,0.1321,0.135,0.1375,0.1394,0.1408,0.1439,0.1459,0.1462,0.1484,0.1514,0.1538,0.1573,0.1602,0.1661,0.1676,0.171,0.1709,0.1744,0.1714,0.1714,0.1713,0.1712,0.1716,0.1751,0.1752,0.1753,0.1753,0,0.1399,0.1401,0.1429,0.1459,0.1483,0.1507,0.153,0.1547,0.1554,0.1578,0.1615,0.1637,0.1681,0.1718,0.1752,0.1767,0.1763,0.1762,0.1772,0.1774,0.1771,0.1776,0.1668,0.176,0.176,0.1759,0.1759,0.1758,0.1456,0.1483,0.1504,0.1537,0.1554,0.1576,0.1602,0.1614,0.1644,0.168,0.168,0.172,0.1745,0.179,0.1807,0.184,0.183,0.1844,0.1848,0.1852,0.1856,0.1763,0.1846,0.1846,0.1846,0.1846,0.1845,0,0.1537,0.155,0.1579,0.1611,0.1637,0.1628,0.1653,0.1676,0.1711,0.1734,0.1762,0.1805,0.184,0.1858,0.1893,0.1916,0.1915,0.1926,0.1926,0.193,0.1862,0.1851,0.1926,0.1926,0.1926,0.1926,0.1926,0.1926,0.1582,0.1627,0.1631,0.1686,0.1699,0.1738,0.1753,0.1774,0.1792,0.184,0.1868,0.1879,0.19,0.1937,0.197,0.1974,0.1989,0.2001,0.2005,0.1942,0.1934,0.1926,0.1916,0.2004,0.2004,0.207,0.207,0.2071]}]]